sat.trackr.live / text

‹ back to catalog

2025-313Q

NORAD 67262 · 2025-313Q

PAYLOAD ACTIVE UNKNOWN

§ Identity

Operator
Country
TBD
Launch date
2025-12-28
Launch site
VOSTO
Launch vehicle
Mass (kg)
RCS (m²)

External: N2YO · Heavens-Above · Gunter

§ Orbital elements

Epoch: 2026-09-20T22:45:31.907808Z

Period
94.40 min
Inclination
97.3856°
Eccentricity
0.0014294
Mean motion
15.25426545 rev/d
Perigee alt
479.7 km
Apogee alt
499.3 km
Semi-major
6,867.6 km
B*
2.8227e-4
RAAN
337.4867°
Arg perigee
38.2176°
Mean anomaly
322.0073°
Rev number
4,055

§ Raw data

2025-313Q1 67262U 25313Q   26263.94828597  .00007083  00000+0  28227-3 0  99992 67262  97.3856 337.4867 0014294  38.2176 322.0073 15.25426545 40558

JSON: /api/v1/satellites/67262 · /tle

For live sub-satellite position, see the globe view (requires WebGL).

§ Visibility from observer

Set your observer location to see the next 7 days of passes ≥ 10°. The values pass through the URL so the page stays shareable.

No JS? Fill the form by hand. The geolocation button needs JavaScript.